カタログに戻る

STARLINK-4072

運用中通信VLEO
NORAD 52694·PAYLOAD·🇺🇸 United States

打ち上げ May 18, 2022 から Cape Canaveral Space Force Station

Loading…

次のパス (今後24時間)

TLE

最新Source: CelesTrak SupGP

元期: Sep 14, 2026, 21:32 UTC

1 52694C 22053AQ  26257.89770833 -.00027990  00000+0 -80091-3 0  2571
2 52694  53.1582   1.0833 0001233  81.3863 116.6275 15.35408981    18

AllMySatでSTARLINK-4072をリアルタイム追跡

Download on the App Store